contact:dominique.lefevre@mio.osupytheas.fr, maurice.libes@osupytheas.fr, didier.mallarino@osupytheas.fr
Project:EMSO http://www.emso-fr.org/EMSO-France
Depth: 2436.0 m
Title:EMSO Ligure Ouest : Data MII capteur AQUADOPP
Date,Latitude,Longitude,X_East,Y_North,Z_Up,Amplitude_X,Amplitude_Y,Amplitude_Z,Batterie,SoundSpeed,Heading,Pitch,Roll,Pressure,TIS,Speed,Direction
, degrees North, degrees East, m.s-1, m.s-1,m.s-1, 1, 1, 1, Volt, m.s-1, degree, degree, degree, dbar, degree_C, m.s-1, degree
2020-03-11T00:04:03,42.805,6.029,-0.005,0.014,-0.051,105.0,107.0,103.0,13.4,1505.3,325.1,-0.7,1.8,2470.279,13.31,0.014,340.4
2020-03-11T00:07:03,42.805,6.029,-0.053,0.0,-0.08,106.0,106.0,102.0,13.3,1505.3,326.3,-0.8,1.8,2470.228,13.31,0.053,270.0
2020-03-11T00:10:03,42.805,6.029,-0.018,-0.021,-0.013,106.0,107.0,102.0,13.4,1505.3,326.6,-0.7,1.8,2470.264,13.32,0.027,220.6
2020-03-11T00:13:03,42.805,6.029,-0.027,-0.019,-0.031,107.0,108.0,102.0,13.4,1505.3,328.3,-0.7,1.8,2470.219,13.32,0.033,234.9
2020-03-11T00:16:03,42.805,6.029,-0.028,-0.002,-0.044,103.0,107.0,103.0,13.4,1505.3,323.8,-0.7,1.8,2470.246,13.32,0.028,265.9
2020-03-11T00:19:03,42.805,6.029,-0.013,-0.023,-0.064,107.0,107.0,101.0,13.4,1505.3,326.8,-0.7,1.8,2470.223,13.33,0.026,209.5
2020-03-11T00:22:03,42.805,6.029,-0.007,-0.01,-0.026,106.0,107.0,103.0,13.4,1505.3,325.1,-0.7,1.8,2470.245,13.33,0.012,215.0
2020-03-11T00:25:03,42.805,6.029,-0.001,-0.002,-0.017,106.0,107.0,103.0,13.3,1505.3,327.0,-0.7,1.8,2470.199,13.33,0.002,206.6
2020-03-11T00:28:03,42.805,6.029,-0.003,0.005,-0.039,106.0,107.0,102.0,13.3,1505.3,326.6,-0.7,1.8,2470.216,13.33,0.005,329.0
2020-03-11T00:31:03,42.805,6.029,0.012,-0.023,0.008,106.0,107.0,103.0,13.4,1505.3,323.7,-0.7,1.8,2470.21,13.33,0.025,152.4
2020-03-11T00:37:03,42.805,6.029,-0.012,-0.03,-0.046,105.0,106.0,103.0,13.4,1505.3,326.9,-0.7,1.8,2470.271,13.31,0.032,201.8
2020-03-11T00:40:03,42.805,6.029,-0.051,-0.011,-0.036,106.0,106.0,102.0,13.4,1505.3,327.0,-0.8,1.9,2470.201,13.31,0.052,257.8
2020-03-11T00:43:03,42.805,6.029,-0.008,0.005,-0.044,107.0,107.0,102.0,13.4,1505.3,325.1,-0.7,1.8,2470.19,13.32,0.009,302.0
2020-03-11T00:46:03,42.805,6.029,-0.002,-0.025,-0.042,105.0,108.0,102.0,13.4,1505.3,327.3,-0.7,1.8,2470.21,13.32,0.025,184.6
2020-03-11T00:49:03,42.805,6.029,-0.02,-0.012,-0.056,106.0,107.0,102.0,13.4,1505.3,326.5,-0.7,1.8,2470.198,13.32,0.023,239.0
2020-03-11T00:52:03,42.805,6.029,-0.041,-0.006,-0.063,106.0,107.0,103.0,13.4,1505.3,322.9,-0.7,1.8,2470.222,13.32,0.041,261.7
2020-03-11T00:55:03,42.805,6.029,-0.015,-0.003,-0.027,107.0,106.0,104.0,13.4,1505.3,325.9,-0.7,1.8,2470.203,13.33,0.015,258.7
2020-03-11T00:58:03,42.805,6.029,-0.015,0.008,-0.039,106.0,105.0,103.0,13.4,1505.3,326.8,-0.7,1.9,2470.178,13.33,0.017,298.1
2020-03-11T01:04:03,42.805,6.029,-0.033,-0.025,-0.051,107.0,107.0,104.0,13.4,1505.3,327.8,-0.7,1.8,2470.216,13.31,0.041,232.9
2020-03-11T01:07:03,42.805,6.029,-0.032,-0.026,-0.037,105.0,106.0,102.0,13.4,1505.3,327.0,-0.7,1.8,2470.218,13.31,0.041,230.9
2020-03-11T01:10:03,42.805,6.029,-0.009,-0.005,-0.028,106.0,106.0,102.0,13.4,1505.3,326.1,-0.7,1.8,2470.227,13.32,0.01,240.9
2020-03-11T01:13:03,42.805,6.029,-0.01,-0.014,-0.05,105.0,105.0,102.0,13.3,1505.3,322.9,-0.7,1.8,2470.151,13.32,0.017,215.5
2020-03-11T01:16:03,42.805,6.029,-0.022,-0.019,-0.028,105.0,107.0,103.0,13.3,1505.3,326.0,-0.7,1.8,2470.185,13.32,0.029,229.2
2020-03-11T01:19:03,42.805,6.029,-0.029,-0.028,-0.061,107.0,106.0,103.0,13.4,1505.3,323.4,-0.8,1.8,2470.171,13.32,0.04,226.0
2020-03-11T01:22:03,42.805,6.029,-0.036,-0.025,-0.047,106.0,106.0,102.0,13.4,1505.3,327.9,-0.7,1.8,2470.167,13.33,0.043,235.2
2020-03-11T01:25:03,42.805,6.029,-0.029,-0.009,-0.043,107.0,107.0,103.0,13.4,1505.3,325.0,-0.7,1.9,2470.203,13.33,0.03,252.8
2020-03-11T01:28:03,42.805,6.029,-0.011,-0.013,-0.011,106.0,108.0,103.0,13.3,1505.3,326.9,-0.7,1.8,2470.163,13.33,0.017,220.2
2020-03-11T01:31:03,42.805,6.029,-0.01,-0.013,-0.003,107.0,107.0,103.0,13.4,1505.3,326.5,-0.7,1.9,2470.143,13.33,0.016,217.6
2020-03-11T01:34:03,42.805,6.029,0.012,-0.01,-0.023,107.0,107.0,103.0,13.4,1505.3,324.4,-0.7,1.8,2470.206,13.33,0.015,129.8
2020-03-11T01:37:03,42.805,6.029,-0.04,-0.003,-0.046,106.0,108.0,103.0,13.4,1505.3,326.2,-0.7,1.8,2470.171,13.33,0.04,265.7
2020-03-11T01:40:03,42.805,6.029,0.014,-0.007,-0.004,105.0,108.0,103.0,13.4,1505.3,325.9,-0.7,1.9,2470.195,13.33,0.015,116.6
2020-03-11T01:43:03,42.805,6.029,-0.011,-0.005,-0.01,107.0,107.0,103.0,13.4,1505.3,326.8,-0.7,1.9,2470.146,13.33,0.012,245.6
2020-03-11T01:46:03,42.805,6.029,-0.042,0.0,-0.053,106.0,107.0,103.0,13.4,1505.3,323.3,-0.7,1.8,2470.162,13.33,0.042,270.0
2020-03-11T01:49:03,42.805,6.029,-0.006,-0.007,-0.029,105.0,108.0,103.0,13.4,1505.3,324.4,-0.7,1.8,2470.164,13.33,0.009,220.6
2020-03-11T01:52:03,42.805,6.029,-0.006,0.006,-0.006,107.0,108.0,102.0,13.3,1505.3,328.0,-0.7,1.9,2470.152,13.33,0.008,315.0
2020-03-11T01:55:03,42.805,6.029,-0.007,-0.01,-0.041,108.0,107.0,102.0,13.4,1505.3,326.7,-0.7,1.8,2470.154,13.33,0.012,215.0
2020-03-11T01:58:03,42.805,6.029,-0.01,-0.015,-0.029,107.0,107.0,103.0,13.4,1505.3,323.7,-0.7,1.9,2470.171,13.33,0.018,213.7
2020-03-11T02:04:03,42.805,6.029,-0.021,-0.014,-0.027,108.0,107.0,103.0,13.3,1505.3,324.2,-0.8,1.8,2470.182,13.31,0.025,236.3
2020-03-11T02:07:03,42.805,6.029,-0.034,0.008,-0.029,106.0,108.0,102.0,13.3,1505.3,326.3,-0.7,1.9,2470.181,13.31,0.034,283.2
2020-03-11T02:10:03,42.805,6.029,-0.022,-0.004,-0.049,107.0,108.0,104.0,13.3,1505.3,325.6,-0.7,1.8,2470.123,13.32,0.022,259.7
2020-03-11T02:13:03,42.805,6.029,-0.022,0.007,-0.056,106.0,107.0,103.0,13.3,1505.3,326.2,-0.7,1.8,2470.18,13.32,0.023,287.6
2020-03-11T02:16:03,42.805,6.029,-0.026,-0.024,-0.025,106.0,106.0,102.0,13.4,1505.3,325.7,-0.7,1.8,2470.182,13.32,0.035,227.3
2020-03-11T02:19:03,42.805,6.029,-0.018,-0.013,-0.036,107.0,106.0,102.0,13.3,1505.3,324.8,-0.7,1.8,2470.191,13.33,0.022,234.2
2020-03-11T02:22:03,42.805,6.029,0.01,-0.013,-0.053,107.0,109.0,102.0,13.4,1505.3,324.6,-0.7,1.8,2470.186,13.33,0.016,142.4
2020-03-11T02:25:03,42.805,6.029,-0.03,-0.007,-0.017,105.0,108.0,104.0,13.4,1505.3,325.4,-0.7,1.8,2470.127,13.33,0.03,256.9
2020-03-11T02:28:03,42.805,6.029,-0.02,-0.004,-0.053,105.0,108.0,102.0,13.4,1505.3,325.0,-0.7,1.8,2470.172,13.33,0.02,258.7
2020-03-11T02:31:03,42.805,6.029,-0.026,-0.01,-0.009,106.0,106.0,103.0,13.4,1505.3,326.7,-0.7,1.9,2470.159,13.33,0.027,249.0
2020-03-11T02:34:03,42.805,6.029,-0.027,-0.008,-0.036,106.0,108.0,102.0,13.3,1505.3,326.9,-0.7,1.8,2470.123,13.33,0.028,253.5
2020-03-11T02:37:03,42.805,6.029,-0.03,0.008,-0.042,106.0,108.0,102.0,13.4,1505.3,327.0,-0.7,1.8,2470.115,13.33,0.031,284.9
2020-03-11T02:40:03,42.805,6.029,-0.02,-0.017,-0.027,106.0,106.0,103.0,13.4,1505.3,326.7,-0.7,1.8,2470.138,13.33,0.026,229.6
2020-03-11T02:43:03,42.805,6.029,-0.013,-0.007,-0.03,108.0,106.0,103.0,13.4,1505.3,327.9,-0.7,1.9,2470.155,13.33,0.014,241.7
2020-03-11T02:46:03,42.805,6.029,-0.013,-0.006,-0.049,106.0,107.0,103.0,13.4,1505.3,324.8,-0.7,1.8,2470.127,13.33,0.014,245.2
2020-03-11T02:49:03,42.805,6.029,-0.031,-0.011,-0.031,106.0,110.0,102.0,13.3,1505.3,326.6,-0.7,1.9,2470.155,13.33,0.032,250.5
2020-03-11T02:52:03,42.805,6.029,-0.012,0.001,-0.034,105.0,107.0,103.0,13.4,1505.3,324.3,-0.7,1.9,2470.113,13.33,0.012,274.8
2020-03-11T02:55:03,42.805,6.029,-0.028,0.005,-0.038,107.0,107.0,104.0,13.3,1505.3,327.4,-0.7,1.9,2470.143,13.33,0.028,280.1
2020-03-11T02:58:03,42.805,6.029,-0.005,0.001,0.002,106.0,107.0,104.0,13.3,1505.3,326.3,-0.7,1.8,2470.149,13.33,0.005,281.3
2020-03-11T03:04:03,42.805,6.029,-0.034,-0.011,0.0,107.0,108.0,103.0,13.4,1505.3,326.6,-0.7,1.9,2470.196,13.31,0.035,252.1
2020-03-11T03:07:03,42.805,6.029,-0.003,-0.007,-0.043,106.0,107.0,103.0,13.3,1505.3,326.4,-0.7,1.8,2470.187,13.32,0.007,203.2
2020-03-11T03:10:03,42.805,6.029,-0.02,-0.004,-0.034,108.0,107.0,104.0,13.4,1505.3,328.4,-0.7,1.9,2470.193,13.32,0.02,258.7
2020-03-11T03:13:03,42.805,6.029,0.003,-0.012,-0.028,107.0,108.0,102.0,13.3,1505.3,325.1,-0.7,1.8,2470.189,13.32,0.012,166.0
2020-03-11T03:16:03,42.805,6.029,0.004,-0.011,0.0,107.0,108.0,104.0,13.3,1505.3,323.1,-0.7,1.9,2470.19,13.33,0.011,160.0
2020-03-11T03:19:03,42.805,6.029,0.007,-0.01,-0.016,106.0,109.0,103.0,13.4,1505.3,328.2,-0.7,1.9,2470.154,13.33,0.012,145.0
2020-03-11T03:22:03,42.805,6.029,-0.002,0.0,-0.054,105.0,109.0,103.0,13.4,1505.3,328.6,-0.7,1.8,2470.187,13.33,0.002,270.0
2020-03-11T03:25:03,42.805,6.029,-0.028,-0.007,-0.045,105.0,107.0,103.0,13.4,1505.3,326.1,-0.8,1.8,2470.181,13.33,0.028,256.0
2020-03-11T03:28:03,42.805,6.029,-0.002,-0.011,-0.035,106.0,108.0,103.0,13.3,1505.3,325.3,-0.7,1.8,2470.156,13.33,0.011,190.3
2020-03-11T03:31:03,42.805,6.029,0.001,-0.018,-0.036,106.0,108.0,103.0,13.4,1505.3,324.9,-0.7,1.8,2470.156,13.33,0.018,176.8
2020-03-11T03:34:03,42.805,6.029,0.026,-0.005,-0.068,105.0,107.0,102.0,13.4,1505.3,327.9,-0.7,1.8,2470.168,13.33,0.026,100.9
2020-03-11T03:37:03,42.805,6.029,-0.024,-0.011,-0.027,106.0,107.0,103.0,13.4,1505.3,327.5,-0.8,1.8,2470.143,13.33,0.026,245.4
2020-03-11T03:40:03,42.805,6.029,-0.033,0.016,-0.071,106.0,108.0,101.0,13.4,1505.3,324.5,-0.7,1.9,2470.18,13.33,0.036,295.9
2020-03-11T03:43:03,42.805,6.029,-0.033,0.003,-0.034,107.0,108.0,103.0,13.4,1505.3,326.0,-0.7,1.8,2470.14,13.33,0.033,275.2
2020-03-11T03:46:03,42.805,6.029,-0.014,0.004,-0.028,107.0,107.0,102.0,13.4,1505.3,326.5,-0.7,1.8,2470.166,13.33,0.014,285.9
2020-03-11T03:49:03,42.805,6.029,-0.013,0.0,-0.047,105.0,107.0,104.0,13.4,1505.3,325.3,-0.7,1.9,2470.096,13.33,0.013,270.0
2020-03-11T03:52:03,42.805,6.029,0.023,0.009,-0.015,107.0,108.0,103.0,13.4,1505.3,323.8,-0.7,1.8,2470.189,13.33,0.024,68.6
2020-03-11T03:55:03,42.805,6.029,-0.001,-0.009,-0.034,106.0,108.0,103.0,13.4,1505.3,324.0,-0.7,1.8,2470.172,13.33,0.009,186.3
2020-03-11T03:58:03,42.805,6.029,0.003,-0.005,-0.009,107.0,109.0,104.0,13.4,1505.3,324.3,-0.7,1.8,2470.159,13.33,0.005,149.0
2020-03-11T04:04:03,42.805,6.029,0.005,0.001,-0.046,104.0,108.0,103.0,13.3,1505.3,323.8,-0.8,1.9,2470.2,13.31,0.005,78.7
2020-03-11T04:07:03,42.805,6.029,-0.007,-0.011,-0.059,105.0,108.0,103.0,13.3,1505.3,327.0,-0.7,1.8,2470.214,13.32,0.013,212.5
2020-03-11T04:10:03,42.805,6.029,-0.021,0.008,-0.037,106.0,109.0,102.0,13.4,1505.3,324.9,-0.7,1.8,2470.255,13.32,0.022,290.9
2020-03-11T04:13:03,42.805,6.029,-0.008,-0.011,-0.047,106.0,109.0,103.0,13.3,1505.3,328.1,-0.7,1.9,2470.203,13.33,0.013,216.0
2020-03-11T04:16:03,42.805,6.029,0.001,0.008,-0.028,106.0,109.0,103.0,13.4,1505.3,324.8,-0.7,1.8,2470.196,13.33,0.008,7.1
2020-03-11T04:19:03,42.805,6.029,-0.015,0.0,0.004,106.0,107.0,103.0,13.4,1505.3,325.4,-0.7,1.9,2470.185,13.33,0.015,270.0
2020-03-11T04:22:03,42.805,6.029,0.027,0.026,-0.023,107.0,107.0,104.0,13.4,1505.3,325.0,-0.7,1.8,2470.218,13.33,0.037,46.1
2020-03-11T04:25:03,42.805,6.029,-0.004,-0.024,-0.042,106.0,107.0,103.0,13.3,1505.3,322.9,-0.7,1.9,2470.222,13.33,0.024,189.5
2020-03-11T04:28:03,42.805,6.029,-0.003,0.009,-0.027,107.0,108.0,103.0,13.4,1505.3,326.8,-0.7,1.8,2470.207,13.33,0.009,341.6
2020-03-11T04:31:03,42.805,6.029,0.006,0.002,-0.009,108.0,108.0,103.0,13.4,1505.3,325.6,-0.7,1.8,2470.205,13.33,0.006,71.6
2020-03-11T04:34:03,42.805,6.029,0.028,0.002,-0.029,106.0,107.0,104.0,13.4,1505.3,324.1,-0.7,1.8,2470.235,13.33,0.028,85.9
2020-03-11T04:37:03,42.805,6.029,-0.02,-0.016,-0.037,106.0,107.0,103.0,13.4,1505.3,326.6,-0.7,1.8,2470.185,13.33,0.025,231.3
2020-03-11T04:40:03,42.805,6.029,0.017,0.0,-0.01,106.0,108.0,103.0,13.3,1505.3,326.6,-0.7,1.8,2470.238,13.33,0.017,90.0
2020-03-11T04:43:03,42.805,6.029,0.004,-0.011,-0.014,105.0,108.0,102.0,13.4,1505.3,325.8,-0.7,1.8,2470.231,13.33,0.011,160.0
2020-03-11T04:46:03,42.805,6.029,-0.01,-0.013,-0.015,105.0,106.0,102.0,13.4,1505.3,324.9,-0.7,1.8,2470.238,13.33,0.016,217.6
2020-03-11T04:49:03,42.805,6.029,0.024,-0.014,0.02,108.0,107.0,103.0,13.4,1505.3,325.0,-0.7,1.8,2470.231,13.33,0.027,120.3
2020-03-11T04:52:03,42.805,6.029,0.036,-0.002,-0.036,107.0,107.0,102.0,13.3,1505.3,323.2,-0.7,1.8,2470.249,13.33,0.036,93.2
2020-03-11T04:55:03,42.805,6.029,0.038,-0.003,-0.03,106.0,107.0,103.0,13.3,1505.3,327.9,-0.7,1.8,2470.204,13.33,0.038,94.5
2020-03-11T04:58:03,42.805,6.029,0.004,0.014,-0.034,107.0,107.0,102.0,13.4,1505.3,324.5,-0.7,1.8,2470.259,13.33,0.014,15.9
2020-03-11T05:04:03,42.805,6.029,0.024,-0.022,-0.024,106.0,106.0,104.0,13.3,1505.3,324.0,-0.8,1.9,2470.265,13.31,0.032,132.5
2020-03-11T05:07:03,42.805,6.029,-0.018,-0.024,-0.048,107.0,108.0,103.0,13.4,1505.3,323.0,-0.7,1.8,2470.273,13.31,0.03,216.9
2020-03-11T05:10:03,42.805,6.029,-0.008,-0.018,-0.08,107.0,106.0,103.0,13.4,1505.3,326.6,-0.7,1.8,2470.284,13.32,0.019,204.0
2020-03-11T05:13:03,42.805,6.029,0.025,0.0,-0.035,107.0,107.0,102.0,13.4,1505.3,325.9,-0.7,1.9,2470.313,13.32,0.025,90.0
2020-03-11T05:16:03,42.805,6.029,-0.001,-0.023,-0.009,107.0,107.0,103.0,13.4,1505.3,324.8,-0.7,1.8,2470.279,13.32,0.023,182.5
2020-03-11T05:19:03,42.805,6.029,-0.003,-0.016,-0.037,108.0,108.0,104.0,13.4,1505.3,327.1,-0.7,1.8,2470.278,13.32,0.016,190.6
2020-03-11T05:22:03,42.805,6.029,-0.007,-0.011,-0.074,106.0,107.0,103.0,13.4,1505.3,324.6,-0.7,1.8,2470.262,13.32,0.013,212.5
2020-03-11T05:25:03,42.805,6.029,0.014,-0.031,0.0,106.0,107.0,104.0,13.4,1505.3,324.7,-0.7,1.8,2470.305,13.32,0.034,155.7
2020-03-11T05:28:03,42.805,6.029,0.012,-0.003,-0.005,106.0,107.0,104.0,13.4,1505.3,326.8,-0.7,1.8,2470.335,13.33,0.012,104.0
2020-03-11T05:31:03,42.805,6.029,0.0,-0.005,-0.039,107.0,108.0,103.0,13.3,1505.3,326.8,-0.7,1.9,2470.323,13.33,0.005,180.0
2020-03-11T05:34:03,42.805,6.029,-0.008,-0.013,-0.034,108.0,107.0,103.0,13.3,1505.3,325.5,-0.7,1.8,2470.293,13.33,0.015,211.6
2020-03-11T05:37:03,42.805,6.029,-0.013,-0.018,-0.018,108.0,106.0,104.0,13.4,1505.3,326.4,-0.7,1.8,2470.316,13.33,0.022,215.8
2020-03-11T05:40:03,42.805,6.029,-0.015,-0.013,-0.045,107.0,107.0,102.0,13.4,1505.3,323.5,-0.7,1.8,2470.309,13.32,0.019,229.1
2020-03-11T05:43:03,42.805,6.029,-0.009,-0.015,-0.04,107.0,109.0,103.0,13.4,1505.3,325.6,-0.7,1.8,2470.314,13.32,0.017,211.0
2020-03-11T05:46:03,42.805,6.029,-0.011,-0.012,-0.038,107.0,107.0,103.0,13.4,1505.3,328.2,-0.7,1.8,2470.299,13.33,0.016,222.5
2020-03-11T05:49:03,42.805,6.029,-0.013,-0.021,-0.039,107.0,107.0,102.0,13.3,1505.3,326.9,-0.7,1.8,2470.319,13.32,0.024,211.8
2020-03-11T05:52:03,42.805,6.029,0.007,-0.016,-0.022,107.0,108.0,104.0,13.3,1505.3,326.9,-0.7,1.8,2470.317,13.32,0.017,156.4
2020-03-11T05:55:03,42.805,6.029,0.008,-0.018,-0.042,107.0,107.0,104.0,13.3,1505.3,323.9,-0.7,1.8,2470.344,13.32,0.019,156.0
2020-03-11T05:58:03,42.805,6.029,-0.01,-0.006,-0.042,108.0,107.0,104.0,13.4,1505.3,326.6,-0.7,1.8,2470.348,13.32,0.011,239.0
2020-03-11T06:04:03,42.805,6.029,0.002,-0.013,-0.02,107.0,108.0,103.0,13.4,1505.3,325.8,-0.7,1.8,2470.387,13.31,0.013,171.3
2020-03-11T06:07:03,42.805,6.029,-0.005,-0.024,-0.058,106.0,108.0,104.0,13.4,1505.3,326.3,-0.7,1.8,2470.35,13.31,0.024,191.8
2020-03-11T06:10:03,42.805,6.029,0.008,-0.033,-0.033,108.0,108.0,103.0,13.4,1505.3,327.1,-0.7,1.8,2470.375,13.32,0.033,166.4
2020-03-11T06:13:03,42.805,6.029,-0.021,-0.035,-0.055,107.0,107.0,102.0,13.4,1505.3,323.4,-0.7,1.8,2470.378,13.32,0.04,211.0
2020-03-11T06:16:03,42.805,6.029,0.0,-0.003,-0.028,107.0,108.0,103.0,13.4,1505.3,326.0,-0.7,1.9,2470.354,13.32,0.003,180.0
2020-03-11T06:19:03,42.805,6.029,-0.01,-0.027,-0.021,106.0,107.0,104.0,13.3,1505.3,326.3,-0.7,1.8,2470.395,13.32,0.028,200.3
2020-03-11T06:22:03,42.805,6.029,0.008,-0.046,-0.046,105.0,109.0,103.0,13.4,1505.3,326.3,-0.8,1.8,2470.408,13.32,0.046,170.1
2020-03-11T06:25:03,42.805,6.029,0.007,-0.029,-0.063,107.0,108.0,104.0,13.4,1505.3,326.1,-0.7,1.9,2470.361,13.32,0.029,166.4
2020-03-11T06:28:03,42.805,6.029,-0.002,-0.016,0.004,106.0,107.0,103.0,13.4,1505.3,326.6,-0.7,1.8,2470.428,13.32,0.016,187.1
2020-03-11T06:31:03,42.805,6.029,-0.014,-0.013,-0.035,108.0,107.0,103.0,13.4,1505.3,324.9,-0.7,1.8,2470.379,13.32,0.019,227.1
2020-03-11T06:34:03,42.805,6.029,-0.003,-0.014,-0.014,107.0,108.0,103.0,13.3,1505.3,327.5,-0.7,1.8,2470.413,13.32,0.014,192.1
2020-03-11T06:37:03,42.805,6.029,-0.027,-0.029,-0.045,107.0,107.0,104.0,13.4,1505.3,326.1,-0.7,1.8,2470.412,13.32,0.039,223.0
2020-03-11T06:40:03,42.805,6.029,-0.016,-0.047,-0.039,108.0,107.0,103.0,13.4,1505.3,325.9,-0.7,1.9,2470.407,13.32,0.049,198.8
2020-03-11T06:43:03,42.805,6.029,-0.013,-0.018,-0.017,107.0,106.0,102.0,13.4,1505.3,327.4,-0.7,1.8,2470.441,13.32,0.022,215.8
2020-03-11T06:46:03,42.805,6.029,0.014,-0.022,-0.031,107.0,108.0,103.0,13.4,1505.3,325.0,-0.7,1.8,2470.416,13.32,0.026,147.5
2020-03-11T06:49:03,42.805,6.029,-0.011,-0.018,-0.033,116.0,108.0,108.0,13.4,1505.3,327.7,-0.7,1.8,2470.386,13.32,0.021,211.4
2020-03-11T06:52:03,42.805,6.029,-0.01,-0.011,-0.026,107.0,108.0,105.0,13.4,1505.3,326.7,-0.7,1.9,2470.377,13.32,0.014,222.3
2020-03-11T06:55:03,42.805,6.029,-0.024,-0.03,-0.072,107.0,108.0,104.0,13.4,1505.3,327.9,-0.7,1.9,2470.381,13.32,0.038,218.7
2020-03-11T06:58:03,42.805,6.029,0.001,-0.028,-0.016,106.0,107.0,104.0,13.4,1505.3,327.9,-0.7,1.8,2470.424,13.32,0.028,178.0
2020-03-11T07:04:03,42.805,6.029,-0.006,-0.001,-0.01,107.0,108.0,106.0,13.4,1505.3,325.8,-0.7,1.8,2470.445,13.31,0.006,260.5
2020-03-11T07:07:03,42.805,6.029,-0.022,-0.019,-0.035,107.0,108.0,104.0,13.4,1505.3,325.0,-0.7,1.8,2470.425,13.31,0.029,229.2
2020-03-11T07:10:03,42.805,6.029,-0.005,-0.017,-0.037,107.0,108.0,103.0,13.4,1505.3,325.0,-0.7,1.8,2470.481,13.32,0.017,196.4
2020-03-11T07:13:03,42.805,6.029,-0.009,-0.031,-0.047,109.0,109.0,103.0,13.4,1505.3,326.9,-0.7,1.8,2470.467,13.32,0.032,196.2
2020-03-11T07:16:03,42.805,6.029,0.001,-0.046,-0.025,107.0,107.0,104.0,13.4,1505.3,323.3,-0.7,1.8,2470.422,13.32,0.046,178.8
2020-03-11T07:19:03,42.805,6.029,-0.019,-0.014,-0.01,108.0,108.0,104.0,13.4,1505.3,325.7,-0.7,1.8,2470.468,13.32,0.023,233.6
2020-03-11T07:22:03,42.805,6.029,0.001,-0.033,-0.025,107.0,108.0,106.0,13.4,1505.3,325.0,-0.7,1.8,2470.459,13.32,0.033,178.3
2020-03-11T07:25:03,42.805,6.029,-0.011,-0.023,-0.03,108.0,108.0,103.0,13.3,1505.3,324.2,-0.7,1.8,2470.438,13.32,0.025,205.6
2020-03-11T07:28:03,42.805,6.029,-0.002,-0.021,-0.015,108.0,107.0,105.0,13.4,1505.3,327.3,-0.7,1.8,2470.421,13.32,0.021,185.4
2020-03-11T07:31:03,42.805,6.029,-0.032,-0.028,-0.059,109.0,108.0,104.0,13.3,1505.3,326.6,-0.7,1.9,2470.463,13.32,0.042,228.8
2020-03-11T07:34:03,42.805,6.029,-0.02,-0.026,-0.033,107.0,108.0,104.0,13.4,1505.3,326.0,-0.7,1.8,2470.458,13.32,0.032,217.6
2020-03-11T07:37:03,42.805,6.029,-0.015,-0.037,-0.044,109.0,108.0,104.0,13.4,1505.3,325.6,-0.7,1.8,2470.429,13.32,0.039,202.1
2020-03-11T07:40:03,42.805,6.029,-0.023,-0.014,-0.015,108.0,108.0,105.0,13.3,1505.3,325.9,-0.7,1.8,2470.425,13.33,0.026,238.7
2020-03-11T07:43:03,42.805,6.029,-0.026,-0.026,-0.034,107.0,109.0,103.0,13.4,1505.3,324.1,-0.7,1.8,2470.483,13.33,0.036,225.0
2020-03-11T07:46:03,42.805,6.029,-0.018,-0.037,-0.063,108.0,108.0,104.0,13.4,1505.3,323.9,-0.8,1.8,2470.453,13.33,0.041,205.9
2020-03-11T07:49:03,42.805,6.029,-0.019,-0.029,-0.027,107.0,109.0,104.0,13.4,1505.3,327.9,-0.7,1.8,2470.499,13.33,0.034,213.2
2020-03-11T07:52:03,42.805,6.029,-0.002,-0.011,-0.006,108.0,109.0,106.0,13.4,1505.3,324.9,-0.7,1.8,2470.412,13.33,0.011,190.3
2020-03-11T07:55:03,42.805,6.029,-0.031,-0.045,-0.08,108.0,110.0,105.0,13.4,1505.3,325.2,-0.8,1.8,2470.437,13.33,0.054,214.6
2020-03-11T07:58:03,42.805,6.029,-0.037,-0.011,-0.05,108.0,109.0,105.0,13.4,1505.3,324.2,-0.7,1.8,2470.484,13.33,0.038,253.4
2020-03-11T08:04:03,42.805,6.029,-0.01,-0.011,0.003,108.0,108.0,105.0,13.4,1505.3,327.2,-0.7,1.8,2470.53,13.31,0.014,222.3
2020-03-11T08:07:03,42.805,6.029,-0.01,-0.022,-0.021,109.0,110.0,105.0,13.4,1505.3,325.4,-0.7,1.9,2470.499,13.31,0.024,204.4
2020-03-11T08:10:03,42.805,6.029,-0.02,-0.032,-0.019,108.0,109.0,104.0,13.4,1505.3,326.0,-0.7,1.8,2470.492,13.32,0.037,212.0
2020-03-11T08:13:03,42.805,6.029,-0.056,-0.01,-0.063,109.0,108.0,106.0,13.4,1505.3,326.5,-0.7,1.8,2470.496,13.32,0.056,259.9
2020-03-11T08:16:03,42.805,6.029,-0.022,-0.023,-0.024,109.0,112.0,104.0,13.3,1505.3,327.2,-0.7,1.8,2470.474,13.32,0.031,223.7
2020-03-11T08:19:03,42.805,6.029,-0.019,-0.005,0.001,110.0,109.0,104.0,13.4,1505.3,325.6,-0.7,1.9,2470.474,13.32,0.019,255.3
2020-03-11T08:22:03,42.805,6.029,-0.014,-0.007,-0.008,109.0,109.0,105.0,13.4,1505.3,328.2,-0.7,1.8,2470.443,13.32,0.015,243.4
2020-03-11T08:25:03,42.805,6.029,-0.06,-0.033,-0.025,108.0,110.0,106.0,13.3,1505.3,326.9,-0.7,1.8,2470.497,13.32,0.068,241.2
2020-03-11T08:28:03,42.805,6.029,-0.031,0.0,-0.029,108.0,109.0,106.0,13.4,1505.3,326.1,-0.7,1.9,2470.477,13.32,0.03,270.0
2020-03-11T08:31:03,42.805,6.029,-0.041,-0.011,0.005,108.0,108.0,104.0,13.3,1505.3,325.1,-0.7,1.8,2470.477,13.32,0.042,255.0
2020-03-11T08:34:03,42.805,6.029,-0.042,-0.005,-0.035,108.0,109.0,104.0,13.3,1505.3,328.4,-0.7,1.9,2470.465,13.33,0.042,263.2
2020-03-11T08:37:03,42.805,6.029,-0.031,-0.019,-0.04,108.0,109.0,106.0,13.4,1505.3,326.2,-0.7,1.8,2470.434,13.32,0.036,238.5
2020-03-11T08:40:03,42.805,6.029,-0.05,-0.021,-0.053,109.0,109.0,104.0,13.4,1505.3,327.6,-0.7,1.8,2470.444,13.32,0.054,247.2
2020-03-11T08:43:03,42.805,6.029,-0.029,-0.023,-0.003,107.0,109.0,105.0,13.3,1505.3,325.5,-0.7,1.8,2470.461,13.32,0.037,231.6
2020-03-11T08:46:03,42.805,6.029,-0.028,-0.018,-0.02,108.0,109.0,104.0,13.3,1505.3,324.0,-0.7,1.9,2470.445,13.32,0.033,237.3
2020-03-11T08:49:03,42.805,6.029,-0.034,0.003,-0.018,108.0,110.0,103.0,13.3,1505.3,326.2,-0.7,1.8,2470.48,13.32,0.034,275.0
2020-03-11T08:52:03,42.805,6.029,-0.046,0.002,-0.027,108.0,108.0,104.0,13.3,1505.3,326.4,-0.7,1.8,2470.472,13.32,0.046,272.5
2020-03-11T08:55:03,42.805,6.029,-0.034,0.005,-0.028,108.0,108.0,105.0,13.3,1505.3,327.4,-0.7,1.8,2470.454,13.32,0.034,278.4
2020-03-11T08:58:03,42.805,6.029,-0.039,0.041,-0.019,107.0,108.0,105.0,13.4,1505.3,325.8,-0.7,1.8,2470.433,13.32,0.056,316.4
2020-03-11T09:04:03,42.805,6.029,-0.033,-0.01,0.011,107.0,109.0,106.0,13.4,1505.2,323.9,-0.8,1.8,2470.519,13.3,0.034,253.1
2020-03-11T09:07:03,42.805,6.029,-0.068,0.025,-0.051,108.0,108.0,105.0,13.4,1505.3,323.5,-0.7,1.8,2470.467,13.31,0.072,290.2
2020-03-11T09:10:03,42.805,6.029,-0.036,0.009,0.004,108.0,110.0,104.0,13.4,1505.3,324.6,-0.7,1.8,2470.454,13.32,0.037,284.0
2020-03-11T09:13:03,42.805,6.029,-0.035,-0.001,-0.009,109.0,109.0,104.0,13.3,1505.3,327.6,-0.7,1.8,2470.481,13.32,0.035,268.4
2020-03-11T09:16:03,42.805,6.029,-0.027,0.001,-0.026,108.0,109.0,104.0,13.4,1505.3,325.0,-0.7,1.8,2470.462,13.32,0.027,272.1
2020-03-11T09:19:03,42.805,6.029,-0.046,0.026,-0.027,107.0,109.0,104.0,13.3,1505.3,323.5,-0.7,1.8,2470.464,13.32,0.052,299.5
2020-03-11T09:22:03,42.805,6.029,-0.041,0.002,-0.001,107.0,110.0,103.0,13.4,1505.3,327.2,-0.7,1.9,2470.475,13.32,0.041,272.8
2020-03-11T09:25:03,42.805,6.029,-0.062,0.008,-0.028,108.0,109.0,105.0,13.4,1505.3,324.3,-0.7,1.8,2470.469,13.32,0.062,277.3
2020-03-11T09:28:03,42.805,6.029,-0.039,-0.015,-0.035,107.0,108.0,104.0,13.3,1505.3,327.2,-0.7,1.8,2470.431,13.33,0.041,249.0
2020-03-11T09:31:03,42.805,6.029,-0.034,0.002,-0.043,108.0,108.0,104.0,13.4,1505.3,327.5,-0.7,1.8,2470.462,13.32,0.034,273.4
2020-03-11T09:34:03,42.805,6.029,-0.059,-0.002,-0.037,107.0,108.0,103.0,13.4,1505.3,328.3,-0.7,1.8,2470.468,13.32,0.059,268.1
2020-03-11T09:37:03,42.805,6.029,-0.063,0.006,-0.048,107.0,107.0,105.0,13.3,1505.3,324.9,-0.7,1.8,2470.439,13.32,0.063,275.4
2020-03-11T09:40:03,42.805,6.029,-0.029,0.013,-0.034,107.0,108.0,105.0,13.3,1505.3,326.2,-0.8,1.8,2470.434,13.32,0.031,294.1
2020-03-11T09:43:03,42.805,6.029,-0.048,0.017,-0.057,108.0,108.0,104.0,13.4,1505.3,324.5,-0.8,1.8,2470.431,13.32,0.05,289.5
2020-03-11T09:46:03,42.805,6.029,-0.032,0.016,0.001,105.0,108.0,104.0,13.4,1505.3,328.3,-0.7,1.8,2470.429,13.32,0.035,296.6
2020-03-11T09:49:03,42.805,6.029,-0.035,-0.012,-0.036,108.0,108.0,103.0,13.4,1505.3,325.8,-0.7,1.9,2470.444,13.32,0.037,251.1
2020-03-11T09:52:03,42.805,6.029,-0.034,-0.006,-0.025,106.0,110.0,103.0,13.4,1505.3,325.9,-0.7,1.8,2470.431,13.32,0.034,260.0
2020-03-11T09:55:03,42.805,6.029,-0.049,-0.006,0.003,107.0,110.0,103.0,13.4,1505.3,326.2,-0.7,1.8,2470.472,13.33,0.049,263.0